Miscellaneous Local Product
Issued by NWS Hastings, NE

Home | Current Version | Previous Version | Text Only | Print | Product List | Glossary Off
Versions: 1 2 3 4 5 6 7 8 9 10 11 12 13 14 15 16 17 18 19 20 21 22 23 24 25 26 27 28 29 30 31 32 33 34 35 36 37 38 39 40 41 42 43 44 45 46 47 48 49 50

000
AXUS43 KGID 270702
MISGRI

GID CWA HOURLY WEATHER ROUNDUP
NATIONAL WEATHER SERVICE HASTINGS NE
200 AM CDT MON APR 27 2015

NOTE: "FAIR" INDICATES FEW OR NO CLOUDS BELOW 12,000 FEET WITH NO
SIGNIFICANT WEATHER AND/OR OBSTRUCTIONS TO VISIBILITY.

...SOUTH CENTRAL NEBRASKA...

CITY           SKY/WX    TMP DP  RH WIND       PRES   REMARKS
GRAND ISLAND   MOCLDY    40  35  83 N3        30.11R
HASTINGS       MOCLDY    42  36  79 CALM      30.10R
KEARNEY        CLOUDY    39  34  81 NW5       30.12S
ORD            PTCLDY    36  32  85 NW5       30.11S WCI  32
YORK           MOCLDY    39  37  93 N6        30.10S WCI  35
AURORA         MOCLDY    39  36  89 N5        30.10R
LEXINGTON      MOCLDY    39  36  89 CALM      30.13S
HOLDREGE       CLOUDY    39  36  90 N6        30.12S WCI  35
HEBRON         PTCLDY    42  35  76 CALM      30.09R

...NEBRASKA PANHANDLE...

CITY           SKY/WX    TMP DP  RH WIND       PRES   REMARKS
CHADRON        MOCLDY    42  39  89 SW3       30.16R
ALLIANCE       CLOUDY    43  41  93 N3        30.14S
SCOTTSBLUFF    CLOUDY    45 N/A N/A CALM      30.16R
SIDNEY         CLOUDY    43  40  89 E3        30.14S

...WESTERN AND NORTH CENTRAL NEBRASKA...

CITY           SKY/WX    TMP DP  RH WIND       PRES   REMARKS
VALENTINE      PTCLDY    35  30  82 W5        30.15S WCI  31
AINSWORTH      CLEAR     40  31  68 W5        30.14S
ONEILL         CLEAR     39  33  78 N7        30.14R WCI  34
BROKEN BOW     PTCLDY    36  32  85 CALM      30.13R
IMPERIAL       CLOUDY    46  41  82 NE8       30.12R
NORTH PLATTE   NOT AVBL
MCCOOK         CLOUDY    50  43  77 NE8       30.11S

...EASTERN NEBRASKA...

CITY           SKY/WX    TMP DP  RH WIND       PRES   REMARKS
NORFOLK        CLEAR     40  34  79 CALM      30.12S
SO SIOUX CITY  CLEAR     45  35  68 CALM      30.14R
TEKAMAH        CLEAR     40  34  79 N8        30.12S WCI  34
COLUMBUS       PTCLDY    41  32  70 CALM      30.13R
ALBION         CLEAR     35  31  86 NW5       30.12S WCI  31
OMAHA EPPLEY   PTCLDY    41  37  86 NW6       30.10F
MILLARD        CLEAR     43  39  85 CALM      30.09F
LINCOLN        MOCLDY    41  36  82 N6        30.09F
NEBRASKA CITY  PTCLDY    43  31  63 CALM      30.08S
BEATRICE       MOCLDY    45  35  69 NE5       30.08R
FALLS CITY     MOCLDY    46  32  58 E6        30.07R

...NORTHERN KANSAS...

CITY           SKY/WX    TMP DP  RH WIND       PRES   REMARKS
GOODLAND       CLOUDY    44  43  96 NE12      30.08S
HILL CITY      PTCLDY    46  42  86 N9        30.07F
NORTON         SUNNY     39  36  87 N8        30.09F WCI  34
PHILLIPSBURG   CLEAR     46  43  87 N8        30.09S
SMITH CENTER   CLEAR     45  37  76 NE9       30.08F
HAYS           CLOUDY    46  37  71 N9        30.05S
RUSSELL        CLOUDY    44  42  93 N9        30.03S
CONCORDIA      PTCLDY    45  36  70 NE5       30.07R
SALINA         MOCLDY    46  40  79 N7        30.03S
TOPEKA         PTCLDY    47  38  71 NE3       30.04S



USA.gov is the U.S. government's official web portal to all federal, state and local government web resources and services.